sat.trackr.live / text

‹ back to catalog

STARLINK-11252 [DTC]

NORAD 61051 · 2024-164B

PAYLOAD ACTIVE UNKNOWN

§ Identity

Operator
Country
US
Launch date
2024-09-13
Launch site
AFWTR
Launch vehicle
Mass (kg)
RCS (m²)

Purposes: comms

External: N2YO · Heavens-Above · Gunter

§ Orbital elements

Epoch: 2026-09-21T21:09:45.754848Z

Period
91.74 min
Inclination
53.1604°
Eccentricity
0.0001008
Mean motion
15.69710908 rev/d
Perigee alt
359.0 km
Apogee alt
360.4 km
Semi-major
6,737.9 km
B*
6.6284e-6
RAAN
64.0735°
Arg perigee
88.3943°
Mean anomaly
271.7190°
Rev number
11,623

§ Raw data

STARLINK-11252 [DTC]1 61051U 24164B   26264.88177957  .00000215  00000+0  66284-5 0  99902 61051  53.1604  64.0735 0001008  88.3943 271.7190 15.69710908116239

JSON: /api/v1/satellites/61051 · /tle

For live sub-satellite position, see the globe view (requires WebGL).

§ Visibility from observer

Set your observer location to see the next 7 days of passes ≥ 10°. The values pass through the URL so the page stays shareable.

No JS? Fill the form by hand. The geolocation button needs JavaScript.